Location: Unspecified
(38.0989°N, 0.6729°W)
Time: 15:02:10
(UTC+01:00)

Envisat - Visible Passes

Search period start: 24 March 2017 00:00
Search period end: 03 April 2017 01:00
Orbit: 764 x 766 km, 98.2° (Epoch: 22 March)

Date Brightness Start Highest point End Pass type
(mag) Time Alt. Az. Time Alt. Az. Time Alt. Az.
24 Mar 4.9 19:39:01 10° ENE 19:40:05 11° ENE 19:41:10 10° NE visible
24 Mar 2.9 21:16:40 44° SSE 21:18:19 88° WSW 21:23:26 10° NNW visible
25 Mar 3.4 20:39:26 26° ESE 20:41:45 41° ENE 20:46:29 10° N visible
25 Mar 5.1 22:19:38 19° WSW 22:20:53 21° W 22:24:42 10° NW visible
26 Mar 4.4 21:02:11 11° ESE 21:05:22 19° ENE 21:08:51 10° NNE visible
26 Mar 3.8 22:42:23 36° SSW 22:43:58 48° W 22:48:54 10° NNW visible
27 Mar 2.9 22:05:10 36° SSE 22:07:16 73° ENE 22:12:21 10° N visible
27 Mar 5.7 23:45:21 10° WSW 23:46:47 11° W 23:48:21 10° WNW visible
28 Mar 3.8 21:27:56 19° ESE 21:30:45 32° ENE 21:35:14 10° N visible
28 Mar 4.8 23:08:07 23° SW 23:09:44 27° W 23:14:02 10° NW visible
29 Mar 4.7 20:51:38 10° E 20:54:26 15° ENE 20:57:15 10° NNE visible
29 Mar 3.3 22:30:53 35° SSW 22:32:53 63° W 22:37:56 10° NNW visible
30 Mar 3.0 21:53:40 27° SE 21:56:14 57° ENE 22:01:13 10° N visible
30 Mar 5.5 23:33:52 13° WSW 23:35:35 15° W 23:38:26 10° WNW visible
31 Mar 4.1 21:16:26 14° ESE 21:19:47 26° ENE 21:23:56 10° NNE visible
31 Mar 4.4 22:56:38 25° SW 22:58:37 34° W 23:03:13 10° NNW visible
01 Apr 3.0 22:19:24 32° S 22:21:49 80° WSW 22:26:56 10° NNW visible
02 Apr 3.3 21:42:11 21° SE 21:45:14 45° ENE 21:50:03 10° N visible
02 Apr 5.2 23:22:22 15° WSW 23:24:26 19° W 23:28:01 10° NW visible
